Wind_Speed
11 11 11 10 11 11 11 11 11 11 12 12 13 14 14 14 14 14 14 14 14 14 14 14 15 15 16 16 17 17 18 19 20 20 20 21 21 22 22 23 23 24 24 25
12 13 13 12 12 12 12 12 13 13 13 14 15 15 15 15 15 15 15 15 15 15 16 16 16 17 17 18 18 19 20 20 21 21 22 22 23 23 23 24 24 25 26 27
14 15 15 13 13 14 14 14 14 14 14 15 16 16 16 16 16 16 16 16 16 17 17 17 18 18 19 19 20 21 21 22 22 23 23 24 24 24 25 25 27 27 28 28
15 16 16 14 15 16 15 15 15 15 15 15 15 16 16 16 16 16 17 17 17 18 18 19 19 20 20 21 21 22 22 23 24 24 25 25 26 26 27 27 28 28 29 29
16 16 15 15 16 16 16 16 16 16 16 16 15 15 16 16 17 17 17 18 18 19 19 20 20 21 21 22 22 23 24 24 25 26 26 27 27 28 28 28 29 29 30 31
17 17 16 16 17 17 17 16 16 16 17 17 16 17 16 17 17 18 18 19 19 20 20 21 21 22 23 23 23 24 25 26 26 27 28 28 29 29 30 30 31 31 32 32
18 18 17 17 17 17 17 17 17 17 18 17 17 17 17 18 18 19 19 20 20 21 21 22 23 24 25 25 26 26 27 27 28 29 29 30 30 31 32 32 33 33 34 34
19 20 18 19 18 19 19 19 18 18 19 19 18 18 18 19 20 21 21 21 22 23 23 24 25 26 27 27 28 28 28 29 30 31 31 32 33 34 34 35 35 36 36 36
21 21 21 21 21 21 21 20 20 20 20 20 20 20 20 21 21 22 23 24 24 25 25 26 26 27 28 29 29 29 30 31 32 32 33 34 35 36 37 37 38 38 38 38
23 23 23 23 23 22 22 22 22 21 21 22 22 22 22 23 23 24 25 26 26 27 27 28 29 29 30 30 31 31 32 33 34 35 35 36 37 38 39 39 40 40 40 40
25 25 25 25 25 24 24 24 24 24 24 24 25 25 25 25 26 26 27 28 28 28 29 29 30 31 31 32 33 33 34 35 36 36 37 38 39 40 40 41 42 42 42 42
27 27 27 27 27 27 27 27 27 27 27 28 28 28 28 28 29 29 29 29 29 30 31 31 32 33 33 34 35 36 37 37 38 39 39 40 41 41 42 42 43 43 44 45
28 28 28 28 28 29 29 29 30 30 30 30 30 30 30 30 30 31 31 31 31 32 33 33 34 35 36 36 37 38 39 40 40 41 41 42 42 43 43 43 44 45 45 47
30 30 30 30 30 30 30 30 31 31 32 32 32 32 32 32 32 32 32 33 33 34 35 35 36 37 38 39 40 41 41 42 42 42 43 44 44 45 45 45 46 46 47 48
31 32 31 32 32 32 32 32 32 32 32 33 34 34 34 34 34 34 35 35 36 36 37 38 38 39 40 41 42 43 43 44 44 45 45 46 46 47 47 47 48 49 49 50
33 33 33 33 33 33 33 33 33 33 33 33 34 34 35 35 35 36 37 37 38 38 39 40 40 41 42 43 44 45 45 46 46 47 47 48 48 49 49 50 51 51 52 52
34 34 34 34 35 34 34 34 34 34 34 35 35 36 36 37 37 38 39 39 40 41 42 42 43 44 45 46 46 47 47 48 48 49 49 50 50 51 52 53 53 54 54 54
34 35 35 36 36 36 36 36 36 36 36 37 37 37 38 39 39 40 41 42 42 43 44 45 46 46 47 47 48 48 49 50 50 51 51 52 53 54 54 55 55 55 55 55
35 35 36 36 36 37 37 37 37 37 38 39 39 40 41 41 41 42 43 44 45 46 46 47 48 48 49 50 50 51 51 52 52 53 54 54 55 56 56 56 56 56 56 56
35 36 36 36 36 37 37 37 38 39 39 40 41 41 42 42 43 44 45 46 47 48 48 49 49 50 50 51 52 53 53 54 54 54 55 56 56 56 57 57 56 56 56 55
36 36 37 37 37 38 38 39 39 40 40 41 42 43 44 44 45 46 47 47 47 48 49 49 50 51 51 52 53 54 54 55 55 56 56 57 57 57 57 57 57 56 56 55
36 37 37 38 39 39 39 40 40 41 42 43 43 44 45 45 46 47 47 48 49 50 50 51 52 52 53 54 55 55 56 56 57 57 58 58 58 58 58 58 57 57 56 56
38 38 38 39 39 39 40 41 41 42 43 43 44 45 46 47 48 48 49 50 51 51 52 53 54 55 55 56 56 57 57 57 58 58 58 58 58 58 58 57 57 56 56 55
40 40 40 40 40 40 40 41 42 43 44 45 46 47 48 49 50 51 52 52 53 54 54 55 55 56 57 57 58 58 58 58 58 58 58 58 58 58 57 57 57 56 56 55
41 41 41 41 42 42 43 43 43 44 45 46 47 48 49 50 51 52 52 53 54 55 56 56 57 57 57 58 58 58 58 57 57 57 57 56 56 56 55 55 55 54 53 52
41 41 42 42 43 43 44 44 45 45 46 47 48 48 49 50 51 52 52 53 54 54 55 55 56 56 56 56 57 56 56 55 55 54 54 54 53 53 53 53 53 53 52 51
42 42 42 43 43 44 44 45 46 46 47 47 48 49 50 51 51 52 53 53 54 54 54 54 54 54 54 54 54 54 53 53 52 52 51 51 50 50 51 51 51 51 50 49
Wind_Direction
228 231 231 232 236 239 240 239 239 236 237 240 245 246 247 248 250 253 257 260 261 263 264 265 266 267 268 270 274 277 281 286 290 293 296 298 300 302 304 305 307 309 310 312
236 238 239 240 243 247 247 250 249 245 244 248 251 252 253 252 253 257 260 262 264 266 267 267 268 269 270 273 276 279 283 286 290 294 296 298 299 301 302 303 305 307 308 310
244 246 246 244 245 249 248 249 250 249 248 252 254 255 256 256 258 259 261 263 265 267 269 271 272 272 273 276 279 282 284 287 290 293 295 297 298 299 300 302 304 305 306 308
249 249 249 245 246 250 251 250 252 253 253 255 257 256 254 255 257 258 261 264 265 267 270 273 274 275 276 279 282 283 285 288 290 292 294 296 298 299 300 301 302 304 305 307
250 252 251 250 252 253 254 255 257 257 257 259 260 259 258 259 261 263 265 266 268 270 271 274 276 277 279 281 283 285 287 288 290 292 294 295 297 298 299 300 301 303 304 306
251 254 254 254 255 257 258 258 259 260 260 262 264 264 263 264 264 266 267 268 268 270 273 274 277 279 281 283 285 286 288 289 290 292 293 294 296 297 298 299 300 301 303 304
254 255 255 255 256 257 259 260 259 261 263 263 264 265 266 266 266 267 268 269 271 273 275 277 279 281 283 285 286 287 288 289 291 293 293 294 295 296 297 298 299 300 301 302
254 255 255 255 256 257 260 261 263 264 264 264 264 265 267 269 269 270 270 271 273 275 277 279 281 283 284 285 286 288 289 290 291 292 293 294 294 295 296 297 298 299 300 300
254 255 255 256 257 259 260 262 264 265 266 264 264 266 268 270 270 271 272 273 275 277 279 281 282 284 285 286 287 288 289 290 291 291 291 293 294 294 295 296 297 298 299 300
255 255 256 257 259 260 261 263 265 266 266 267 266 267 269 271 271 272 273 275 276 278 279 281 283 284 285 286 287 288 289 290 290 291 292 293 294 295 295 296 297 298 298 299
256 257 258 260 261 261 263 264 265 265 266 267 269 270 270 270 271 272 274 275 277 278 279 281 282 284 285 286 287 288 289 290 290 291 292 294 295 295 295 296 296 297 298 298
259 258 259 259 261 263 264 265 266 267 267 268 269 270 271 271 272 273 275 276 277 279 280 281 283 284 285 286 287 289 289 290 290 291 292 294 295 295 295 296 296 296 297 298
261 260 261 261 262 263 265 266 267 267 267 268 268 270 271 272 273 274 275 276 277 279 280 281 283 284 285 286 288 289 290 290 291 291 292 293 294 294 295 295 295 296 297 298
261 261 261 262 263 264 265 267 268 268 268 268 269 270 271 272 273 274 275 276 277 279 280 282 283 284 285 286 288 289 290 290 291 291 292 293 294 294 294 295 295 296 296 297
260 261 262 263 264 266 266 267 269 269 269 269 269 269 271 272 273 275 276 277 278 279 280 282 283 285 285 287 288 289 289 290 291 292 293 293 294 294 294 295 295 296 296 296
261 262 263 264 265 267 268 268 269 269 270 270 270 270 272 272 274 275 277 278 279 280 281 283 284 285 286 287 287 288 289 289 290 291 292 293 293 294 294 295 295 295 296 296
261 261 263 264 265 267 268 269 269 270 270 271 271 272 273 274 275 277 278 279 280 281 283 284 285 285 286 287 288 288 288 289 289 290 291 292 292 293 293 294 294 295 295 295
261 262 262 264 265 267 268 269 270 270 271 272 272 274 275 275 276 277 278 279 281 282 283 284 285 286 286 287 288 288 289 289 289 290 290 291 291 292 293 293 294 294 295 295
263 264 264 265 266 268 269 270 270 271 272 273 274 275 276 276 277 278 279 280 282 283 283 284 284 285 286 287 288 289 289 289 289 290 290 291 291 292 292 293 294 294 294 295
264 265 266 267 268 269 270 270 271 272 273 274 275 277 278 278 279 280 281 282 283 284 284 285 285 286 287 288 288 288 289 289 289 290 290 291 291 291 292 293 293 293 294 294
266 267 268 268 269 270 271 272 273 274 275 276 277 278 279 280 280 281 282 283 283 284 285 286 287 287 288 288 289 289 290 290 290 290 291 291 291 291 291 292 292 293 293 293
270 270 270 270 270 271 272 273 274 275 276 277 278 279 279 281 282 283 283 284 285 285 286 287 288 288 288 289 290 290 290 290 290 290 290 291 290 291 291 292 292 292 292 292
271 271 271 271 271 272 273 274 275 276 277 277 278 279 280 281 282 283 284 285 286 287 287 288 288 289 289 290 290 290 290 290 290 290 290 290 290 290 291 291 292 292 292 291
270 271 272 273 274 275 275 276 277 277 278 279 280 281 282 283 284 284 285 286 286 287 288 288 289 289 289 290 290 291 290 290 290 290 290 290 290 290 290 290 290 290 291 290
269 271 272 273 275 276 277 278 279 279 280 281 282 283 283 284 285 286 287 287 288 288 289 290 290 290 290 291 291 291 290 290 290 290 290 290 290 290 289 290 290 290 290 289
269 271 272 274 276 277 278 279 279 280 280 281 282 283 284 285 286 287 288 288 289 290 290 290 290 290 290 291 291 291 290 290 291 291 291 291 290 290 291 291 291 291 290 289
271 272 273 275 276 278 279 279 280 281 281 282 283 284 285 286 287 287 288 289 289 290 290 291 291 291 291 291 292 291 291 291 291 292 291 291 290 291 291 292 292 291 291 290
Height
5846 5846 5847 5849 5850 5850 5851 5852 5854 5855 5855 5856 5856 5857 5858 5858 5859 5860 5860 5861 5861 5861 5861 5861 5861 5861 5861 5861 5860 5860 5859 5858 5857 5855 5854 5852 5850 5848 5846 5844 5841 5838 5835 5832
5843 5844 5845 5846 5847 5847 5848 5849 5850 5851 5852 5852 5853 5853 5854 5855 5855 5856 5857 5857 5857 5857 5857 5857 5857 5856 5856 5856 5855 5855 5854 5853 5851 5850 5848 5846 5844 5842 5840 5837 5835 5832 5829 5825
5841 5841 5842 5843 5844 5844 5845 5846 5846 5848 5850 5849 5849 5850 5850 5851 5851 5852 5852 5852 5853 5852 5852 5852 5852 5851 5851 5850 5850 5849 5848 5847 5845 5844 5842 5840 5838 5835 5833 5830 5828 5825 5821 5818
5837 5838 5839 5842 5840 5840 5841 5842 5842 5843 5844 5844 5845 5845 5846 5846 5846 5847 5847 5848 5847 5847 5847 5847 5847 5846 5845 5845 5844 5843 5842 5840 5839 5837 5835 5833 5831 5828 5825 5823 5820 5817 5814 5810
5833 5833 5834 5836 5836 5836 5836 5838 5838 5838 5839 5839 5840 5840 5841 5841 5842 5842 5842 5842 5842 5842 5842 5841 5841 5840 5840 5839 5838 5836 5835 5833 5832 5830 5828 5825 5823 5820 5817 5815 5812 5809 5806 5802
5828 5828 5830 5832 5831 5831 5833 5833 5834 5833 5834 5835 5835 5836 5837 5836 5836 5837 5837 5837 5837 5836 5836 5836 5835 5834 5833 5832 5831 5830 5828 5826 5824 5822 5820 5817 5815 5812 5809 5806 5804 5801 5797 5794
5823 5823 5825 5826 5826 5827 5829 5829 5829 5828 5829 5829 5830 5831 5831 5831 5831 5831 5831 5831 5831 5830 5830 5829 5829 5828 5827 5825 5824 5822 5820 5818 5816 5814 5811 5809 5806 5803 5800 5798 5795 5792 5788 5785
5817 5818 5821 5820 5821 5822 5823 5822 5823 5823 5823 5824 5824 5825 5825 5825 5825 5825 5825 5825 5824 5824 5823 5823 5822 5821 5819 5818 5816 5814 5812 5810 5808 5805 5803 5800 5797 5794 5791 5788 5785 5782 5778 5775
5812 5814 5814 5814 5814 5815 5816 5816 5817 5817 5818 5818 5818 5818 5819 5819 5818 5818 5818 5818 5817 5817 5816 5815 5814 5813 5811 5809 5808 5806 5804 5801 5799 5796 5793 5790 5787 5784 5781 5778 5774 5771 5767 5764
5805 5806 5806 5807 5807 5808 5809 5810 5810 5811 5811 5811 5812 5812 5812 5812 5811 5811 5810 5810 5809 5809 5808 5807 5805 5804 5802 5801 5799 5796 5794 5792 5789 5786 5783 5780 5777 5773 5770 5767 5763 5760 5756 5752
5798 5799 5799 5800 5800 5801 5802 5803 5803 5803 5804 5804 5804 5804 5804 5804 5803 5803 5802 5802 5801 5800 5799 5798 5796 5795 5793 5791 5789 5787 5784 5781 5778 5776 5773 5769 5766 5762 5759 5756 5751 5748 5744 5740
5791 5792 5792 5793 5793 5793 5794 5794 5795 5795 5796 5796 5796 5796 5796 5795 5795 5795 5794 5793 5792 5791 5790 5789 5787 5785 5783 5781 5779 5776 5774 5771 5767 5764 5761 5758 5755 5751 5747 5744 5740 5735 5731 5727
5782 5783 5783 5784 5784 5785 5785 5786 5786 5786 5787 5787 5787 5787 5786 5786 5786 5785 5785 5784 5783 5782 5780 5779 5777 5775 5773 5771 5768 5765 5762 5759 5756 5753 5749 5746 5742 5739 5735 5731 5727 5723 5719 5714
5772 5773 5774 5775 5776 5776 5776 5776 5776 5777 5777 5777 5777 5777 5777 5776 5776 5775 5774 5774 5772 5771 5770 5768 5766 5764 5762 5759 5756 5753 5750 5747 5744 5740 5737 5733 5729 5726 5722 5718 5714 5710 5706 5701
5763 5764 5765 5765 5766 5766 5766 5766 5767 5767 5767 5767 5766 5766 5766 5766 5765 5765 5764 5763 5762 5760 5758 5756 5754 5752 5749 5747 5744 5741 5737 5734 5731 5727 5723 5720 5716 5712 5708 5704 5700 5696 5691 5687
5753 5754 5755 5755 5756 5756 5756 5756 5756 5756 5756 5756 5756 5755 5755 5754 5754 5753 5752 5751 5750 5748 5746 5744 5742 5739 5736 5734 5730 5727 5724 5721 5717 5713 5710 5706 5702 5698 5694 5689 5685 5681 5676 5672
5743 5744 5744 5745 5745 5745 5745 5745 5745 5745 5745 5745 5744 5744 5743 5743 5742 5741 5740 5738 5737 5735 5733 5731 5729 5726 5723 5720 5716 5713 5710 5706 5703 5699 5695 5691 5687 5683 5678 5674 5670 5665 5661 5656
5732 5733 5733 5734 5734 5734 5734 5734 5734 5734 5734 5733 5733 5732 5731 5731 5730 5728 5727 5726 5724 5722 5720 5717 5714 5711 5708 5705 5702 5698 5695 5691 5687 5684 5680 5676 5671 5667 5662 5658 5653 5649 5644 5639
5721 5722 5722 5722 5722 5722 5723 5723 5722 5722 5722 5721 5720 5720 5719 5717 5716 5715 5713 5712 5710 5708 5705 5702 5699 5696 5693 5690 5686 5683 5679 5675 5671 5667 5663 5659 5655 5650 5646 5641 5636 5632 5627 5622
5710 5710 5710 5710 5711 5711 5711 5710 5710 5710 5709 5708 5707 5706 5705 5704 5702 5701 5699 5697 5695 5692 5690 5687 5684 5681 5677 5674 5670 5666 5662 5658 5654 5650 5646 5642 5637 5633 5628 5624 5619 5615 5610 5605
5698 5698 5698 5698 5698 5698 5698 5698 5697 5697 5696 5695 5694 5692 5691 5689 5688 5686 5684 5682 5680 5677 5674 5671 5668 5665 5661 5657 5653 5649 5646 5642 5637 5633 5629 5625 5620 5616 5611 5607 5602 5597 5593 5588
5686 5686 5686 5686 5686 5685 5685 5684 5684 5683 5682 5681 5679 5678 5676 5675 5673 5671 5669 5667 5664 5661 5658 5655 5652 5648 5644 5640 5636 5632 5628 5624 5620 5615 5611 5606 5602 5598 5593 5589 5584 5580 5575 5571
5673 5673 5673 5673 5673 5673 5672 5671 5670 5669 5668 5666 5665 5663 5661 5660 5658 5656 5654 5651 5648 5644 5641 5638 5635 5631 5627 5623 5619 5614 5610 5606 5601 5597 5592 5588 5583 5579 5575 5570 5566 5562 5557 5553
5660 5660 5660 5659 5659 5659 5658 5657 5656 5655 5653 5652 5650 5648 5646 5644 5642 5639 5636 5634 5631 5627 5624 5621 5617 5612 5608 5604 5600 5596 5591 5587 5582 5578 5573 5569 5565 5560 5556 5552 5548 5544 5540 5535
5646 5646 5646 5646 5645 5645 5644 5643 5641 5640 5639 5637 5635 5633 5630 5628 5625 5622 5619 5616 5613 5609 5606 5602 5598 5594 5589 5585 5581 5576 5572 5568 5563 5559 5554 5550 5546 5542 5538 5534 5530 5526 5522 5518
5632 5632 5632 5632 5631 5630 5629 5628 5627 5625 5623 5622 5620 5617 5614 5611 5608 5605 5602 5599 5595 5591 5587 5584 5580 5575 5571 5566 5562 5558 5554 5549 5545 5541 5537 5532 5528 5524 5520 5516 5512 5508 5504 5501
5619 5618 5618 5617 5616 5615 5614 5613 5612 5610 5608 5605 5604 5601 5598 5595 5592 5588 5585 5581 5578 5574 5570 5566 5562 5557 5553 5548 5544 5540 5536 5532 5528 5524 5520 5516 5512 5508 5504 5500 5496 5492 5488 5484